Tracking 35035 objects as of 16-Aug-2026
HD Live streaming from Space Station
objects crossing your sky now

COSMOS 686 DEB


COSMOS 686 DEB is no longer on orbit


NORAD ID: 7453
Int'l Code: 1974-074G
Launch date: September 26, 1974
Source: Commonwealth of Independent States (former USSR) (CIS)
Launch site: PLESETSK MISSILE AND SPACE COMPLEX (PKMTR)
Decay date: 1975-07-05

Note: This is SATELLITE DEBRIS
Your satellite tracking list
Your tracking list is empty




NASA's NSSDC Master Catalog

Two Line Element Set (TLE):
1 07453U 74074  G 75185.49945350  .05179225 +00000-0 +00000-0 0  9997
2 07453 071.1890 225.9846 0041224 236.9121 122.8167 16.38232102044104
Source of the keplerian elements: AFSPC